Time,TemperatureF,DewpointF,PressureIn,WindDirection,WindDirectionDegrees,WindSpeedMPH,WindSpeedGustMPH,Humidity,HourlyPrecipIn,Conditions,Clouds,dailyrainin,SoftwareType,DateUTC
2013-11-10 00:01:00,38.2,30.6,29.90,South,180,2.2,3.4,74,0.00,,,0.00,WUHU216HW,2013-11-10 05:01:00,
2013-11-10 00:02:00,38.2,30.6,29.90,SW,225,3.4,3.4,74,0.00,,,0.00,WUHU216HW,2013-11-10 05:02:00,
2013-11-10 00:07:00,38.2,30.6,29.90,South,180,1.1,4.3,74,0.00,,,0.00,WUHU216HW,2013-11-10 05:07:00,
2013-11-10 00:12:00,38.2,30.6,29.90,SSE,158,2.5,4.3,74,0.00,,,0.00,WUHU216HW,2013-11-10 05:12:00,
2013-11-10 00:17:00,38.0,30.4,29.89,SSE,158,6.0,6.0,74,0.00,,,0.00,WUHU216HW,2013-11-10 05:17:00,
2013-11-10 00:22:00,38.0,30.8,29.89,SSE,158,4.7,6.0,75,0.00,,,0.00,WUHU216HW,2013-11-10 05:22:00,
2013-11-10 00:27:00,38.0,31.1,29.89,SSW,203,6.3,6.5,76,0.00,,,0.00,WUHU216HW,2013-11-10 05:27:00,
2013-11-10 00:32:00,38.0,31.4,29.88,SE,135,3.8,6.5,77,0.00,,,0.00,WUHU216HW,2013-11-10 05:32:00,
2013-11-10 00:37:00,38.0,31.4,29.88,South,180,2.0,6.3,77,0.00,,,0.00,WUHU216HW,2013-11-10 05:37:00,
2013-11-10 00:42:00,38.0,31.1,29.88,SSE,158,3.8,4.7,76,0.00,,,0.00,WUHU216HW,2013-11-10 05:42:00,
2013-11-10 00:47:00,38.0,31.1,29.87,SW,225,5.8,5.8,76,0.00,,,0.00,WUHU216HW,2013-11-10 05:47:00,
2013-11-10 00:52:00,37.8,31.2,29.87,SSE,158,5.1,5.8,77,0.01,,,0.01,WUHU216HW,2013-11-10 05:52:00,
2013-11-10 00:57:00,37.8,31.2,29.86,SE,135,4.0,5.1,77,0.01,,,0.01,WUHU216HW,2013-11-10 05:57:00,
2013-11-10 01:02:00,37.8,30.9,29.86,SE,135,3.8,4.7,76,0.01,,,0.01,WUHU216HW,2013-11-10 06:02:00,
2013-11-10 01:07:00,37.8,30.9,29.86,SE,135,4.5,5.4,76,0.01,,,0.01,WUHU216HW,2013-11-10 06:07:00,
2013-11-10 01:12:00,37.6,30.8,29.86,SE,135,5.8,5.8,76,0.01,,,0.01,WUHU216HW,2013-11-10 06:12:00,
2013-11-10 01:17:00,37.4,30.9,29.85,SE,135,4.7,5.8,77,0.01,,,0.01,WUHU216HW,2013-11-10 06:17:00,
2013-11-10 01:22:00,37.3,31.1,29.85,SSE,158,3.8,5.6,78,0.01,,,0.01,WUHU216HW,2013-11-10 06:22:00,
2013-11-10 01:27:00,37.3,31.1,29.85,SE,135,5.1,5.1,78,0.01,,,0.01,WUHU216HW,2013-11-10 06:27:00,
2013-11-10 01:32:00,37.1,31.1,29.85,SE,135,5.8,5.8,79,0.01,,,0.01,WUHU216HW,2013-11-10 06:32:00,
2013-11-10 01:37:00,37.1,31.1,29.85,SE,135,4.5,5.8,79,0.01,,,0.01,WUHU216HW,2013-11-10 06:37:00,
2013-11-10 01:42:00,37.1,31.1,29.85,SSE,158,5.6,6.3,79,0.01,,,0.01,WUHU216HW,2013-11-10 06:42:00,
2013-11-10 01:47:00,37.1,31.5,29.84,SSE,158,4.7,6.3,80,0.01,,,0.01,WUHU216HW,2013-11-10 06:47:00,
2013-11-10 01:52:00,37.1,31.5,29.84,SSE,158,4.5,5.6,80,0.00,,,0.01,WUHU216HW,2013-11-10 06:52:00,
2013-11-10 01:57:00,37.1,31.5,29.84,SSW,203,5.8,5.8,80,0.00,,,0.01,WUHU216HW,2013-11-10 06:57:00,
2013-11-10 02:02:00,37.1,31.5,29.83,SSE,158,5.1,5.8,80,0.00,,,0.01,WUHU216HW,2013-11-10 07:02:00,
2013-11-10 02:07:00,37.1,31.5,29.83,SSE,158,3.4,5.1,80,0.00,,,0.01,WUHU216HW,2013-11-10 07:07:00,
2013-11-10 02:12:00,37.1,31.5,29.83,SSE,158,2.0,5.1,80,0.00,,,0.01,WUHU216HW,2013-11-10 07:12:00,
2013-11-10 02:17:00,37.1,31.5,29.83,SSE,158,2.0,4.0,80,0.00,,,0.01,WUHU216HW,2013-11-10 07:17:00,
2013-11-10 02:59:00,37.3,32.0,29.81,SSE,158,2.5,2.5,81,0.01,,,0.01,WUHU216HW,2013-11-10 07:59:00,
2013-11-10 03:04:00,37.3,32.0,29.81,SSE,158,2.9,3.4,81,0.01,,,0.02,WUHU216HW,2013-11-10 08:04:00,
2013-11-10 03:09:00,37.1,31.8,29.81,SE,135,2.5,3.4,81,0.01,,,0.02,WUHU216HW,2013-11-10 08:09:00,
2013-11-10 03:14:00,37.1,31.8,29.80,SE,135,2.0,3.4,81,0.01,,,0.02,WUHU216HW,2013-11-10 08:14:00,
2013-11-10 03:19:00,37.1,31.8,29.80,SSE,158,2.5,2.9,81,0.01,,,0.02,WUHU216HW,2013-11-10 08:19:00,
2013-11-10 03:24:00,37.1,31.8,29.80,SE,135,2.9,2.9,81,0.01,,,0.02,WUHU216HW,2013-11-10 08:24:00,
2013-11-10 03:29:00,37.1,31.8,29.80,SSE,158,3.1,3.4,81,0.01,,,0.02,WUHU216HW,2013-11-10 08:29:00,
2013-11-10 03:34:00,37.1,32.0,29.80,SSE,158,4.0,4.3,82,0.01,,,0.02,WUHU216HW,2013-11-10 08:34:00,
2013-11-10 03:39:00,37.1,31.8,29.79,SSE,158,4.3,5.4,81,0.02,,,0.03,WUHU216HW,2013-11-10 08:39:00,
2013-11-10 03:44:00,37.1,32.0,29.79,SSE,158,4.7,5.4,82,0.02,,,0.03,WUHU216HW,2013-11-10 08:44:00,
2013-11-10 03:49:00,37.1,32.0,29.79,SSE,158,3.1,5.1,82,0.01,,,0.03,WUHU216HW,2013-11-10 08:49:00,
2013-11-10 03:54:00,36.9,31.9,29.79,SSE,158,3.4,4.7,82,0.01,,,0.03,WUHU216HW,2013-11-10 08:54:00,
2013-11-10 03:59:00,36.9,31.9,29.79,SSE,158,3.8,4.7,82,0.01,,,0.03,WUHU216HW,2013-11-10 08:59:00,
2013-11-10 04:04:00,37.1,32.4,29.79,SE,135,3.4,5.4,83,0.01,,,0.03,WUHU216HW,2013-11-10 09:04:00,
2013-11-10 04:09:00,37.1,32.4,29.79,SSE,158,6.0,6.5,83,0.01,,,0.03,WUHU216HW,2013-11-10 09:09:00,
2013-11-10 04:14:00,37.1,32.4,29.79,SSE,158,6.0,6.5,83,0.01,,,0.03,WUHU216HW,2013-11-10 09:14:00,
2013-11-10 04:19:00,37.1,32.0,29.78,SSE,158,4.3,6.3,82,0.01,,,0.03,WUHU216HW,2013-11-10 09:19:00,
2013-11-10 04:24:00,37.1,32.0,29.78,SE,135,5.1,6.3,82,0.01,,,0.03,WUHU216HW,2013-11-10 09:24:00,
2013-11-10 04:29:00,37.1,32.0,29.78,SE,135,4.5,5.1,82,0.01,,,0.03,WUHU216HW,2013-11-10 09:29:00,
2013-11-10 04:34:00,37.1,32.4,29.77,SE,135,4.0,4.9,83,0.00,,,0.03,WUHU216HW,2013-11-10 09:34:00,
2013-11-10 04:39:00,37.1,32.0,29.77,SSE,158,6.3,6.3,82,0.00,,,0.03,WUHU216HW,2013-11-10 09:39:00,
2013-11-10 04:44:00,37.3,32.2,29.77,South,180,6.7,7.4,82,0.00,,,0.03,WUHU216HW,2013-11-10 09:44:00,
2013-11-10 04:49:00,37.1,32.4,29.77,SSE,158,5.8,8.3,83,0.00,,,0.03,WUHU216HW,2013-11-10 09:49:00,
2013-11-10 04:54:00,37.1,32.4,29.77,SE,135,7.6,8.3,83,0.00,,,0.03,WUHU216HW,2013-11-10 09:54:00,
2013-11-10 04:59:00,37.1,32.4,29.77,SSE,158,6.5,7.6,83,0.00,,,0.03,WUHU216HW,2013-11-10 09:59:00,
2013-11-10 05:04:00,37.1,32.4,29.77,SE,135,6.0,7.6,83,0.00,,,0.03,WUHU216HW,2013-11-10 10:04:00,
2013-11-10 05:09:00,37.3,32.6,29.77,SE,135,5.4,8.1,83,0.00,,,0.03,WUHU216HW,2013-11-10 10:09:00,
2013-11-10 05:14:00,37.3,32.6,29.76,SE,135,5.8,8.1,83,0.00,,,0.03,WUHU216HW,2013-11-10 10:14:00,
2013-11-10 05:19:00,37.3,32.6,29.77,South,180,5.4,6.3,83,0.00,,,0.03,WUHU216HW,2013-11-10 10:19:00,
2013-11-10 05:24:00,37.3,32.6,29.77,SSE,158,1.8,5.8,83,0.00,,,0.03,WUHU216HW,2013-11-10 10:24:00,
2013-11-10 05:29:00,37.3,32.6,29.76,West,270,2.7,4.0,83,0.00,,,0.03,WUHU216HW,2013-11-10 10:29:00,
2013-11-10 05:34:00,37.3,32.6,29.76,SW,225,4.5,5.8,83,0.00,,,0.03,WUHU216HW,2013-11-10 10:34:00,
2013-11-10 05:36:00,37.3,32.2,29.76,South,180,3.8,5.8,82,0.00,,,0.03,WUHU216HW,2013-11-10 10:36:00,
2013-11-10 05:41:00,37.3,32.2,29.75,South,180,5.1,5.8,82,0.00,,,0.03,WUHU216HW,2013-11-10 10:41:00,
2013-11-10 05:46:00,37.1,32.0,29.75,SSW,203,5.6,6.7,82,0.00,,,0.03,WUHU216HW,2013-11-10 10:46:00,
2013-11-10 05:51:00,37.1,32.4,29.75,SE,135,5.6,7.8,83,0.00,,,0.03,WUHU216HW,2013-11-10 10:51:00,
2013-11-10 05:56:00,37.1,32.4,29.75,SSE,158,8.5,8.5,83,0.00,,,0.03,WUHU216HW,2013-11-10 10:56:00,
2013-11-10 06:01:00,37.3,32.6,29.75,SSW,203,7.2,8.5,83,0.00,,,0.03,WUHU216HW,2013-11-10 11:01:00,
2013-11-10 06:06:00,37.1,32.4,29.74,SSE,158,6.3,8.3,83,0.00,,,0.03,WUHU216HW,2013-11-10 11:06:00,
2013-11-10 06:11:00,37.1,32.4,29.75,SE,135,5.8,8.3,83,0.00,,,0.03,WUHU216HW,2013-11-10 11:11:00,
2013-11-10 06:16:00,37.3,32.6,29.75,South,180,4.7,7.2,83,0.00,,,0.03,WUHU216HW,2013-11-10 11:16:00,
2013-11-10 06:21:00,37.3,32.6,29.75,SSE,158,5.4,7.2,83,0.00,,,0.03,WUHU216HW,2013-11-10 11:21:00,
2013-11-10 06:26:00,37.3,32.6,29.75,SW,225,5.6,8.5,83,0.00,,,0.03,WUHU216HW,2013-11-10 11:26:00,
2013-11-10 06:31:00,37.3,32.6,29.75,South,180,3.6,8.5,83,0.00,,,0.03,WUHU216HW,2013-11-10 11:31:00,
2013-11-10 06:36:00,37.1,32.0,29.75,South,180,2.9,5.4,82,0.00,,,0.03,WUHU216HW,2013-11-10 11:36:00,
2013-11-10 06:41:00,37.1,32.0,29.75,South,180,3.6,5.4,82,0.00,,,0.03,WUHU216HW,2013-11-10 11:41:00,
2013-11-10 06:46:00,37.1,32.4,29.75,South,180,1.8,5.4,83,0.00,,,0.03,WUHU216HW,2013-11-10 11:46:00,
2013-11-10 06:51:00,37.1,32.4,29.75,SSE,158,4.7,5.4,83,0.00,,,0.03,WUHU216HW,2013-11-10 11:51:00,
2013-11-10 06:56:00,37.1,32.4,29.75,ESE,113,6.7,6.9,83,0.00,,,0.03,WUHU216HW,2013-11-10 11:56:00,
2013-11-10 07:01:00,37.3,32.6,29.75,SSW,203,7.2,7.2,83,0.00,,,0.03,WUHU216HW,2013-11-10 12:01:00,
2013-11-10 07:06:00,37.3,32.6,29.75,South,180,6.7,7.2,83,0.00,,,0.03,WUHU216HW,2013-11-10 12:06:00,
2013-11-10 07:11:00,37.4,32.8,29.75,South,180,6.3,6.9,83,0.00,,,0.03,WUHU216HW,2013-11-10 12:11:00,
2013-11-10 07:16:00,37.4,32.8,29.76,SE,135,6.5,6.5,83,0.00,,,0.03,WUHU216HW,2013-11-10 12:16:00,
2013-11-10 07:21:00,37.4,32.8,29.76,SE,135,5.6,7.6,83,0.00,,,0.03,WUHU216HW,2013-11-10 12:21:00,
2013-11-10 07:26:00,37.4,32.8,29.75,SE,135,5.6,7.6,83,0.00,,,0.03,WUHU216HW,2013-11-10 12:26:00,
2013-11-10 07:31:00,37.4,32.8,29.75,SE,135,5.4,7.4,83,0.00,,,0.03,WUHU216HW,2013-11-10 12:31:00,
2013-11-10 07:36:00,37.4,32.8,29.75,SE,135,5.6,6.7,83,0.00,,,0.03,WUHU216HW,2013-11-10 12:36:00,
2013-11-10 07:41:00,37.4,32.8,29.75,SE,135,4.9,7.8,83,0.00,,,0.03,WUHU216HW,2013-11-10 12:41:00,
2013-11-10 07:46:00,37.4,32.8,29.75,SE,135,5.4,7.8,83,0.00,,,0.03,WUHU216HW,2013-11-10 12:46:00,
2013-11-10 07:51:00,37.6,33.0,29.75,SSE,158,4.7,6.7,83,0.00,,,0.03,WUHU216HW,2013-11-10 12:51:00,
2013-11-10 07:56:00,37.8,33.1,29.75,SE,135,6.3,6.3,83,0.00,,,0.03,WUHU216HW,2013-11-10 12:56:00,
2013-11-10 08:01:00,37.8,33.1,29.75,SE,135,4.9,6.3,83,0.00,,,0.03,WUHU216HW,2013-11-10 13:01:00,
2013-11-10 08:06:00,37.8,33.1,29.75,SSE,158,7.6,7.6,83,0.00,,,0.03,WUHU216HW,2013-11-10 13:06:00,
2013-11-10 08:11:00,38.0,33.3,29.75,SSW,203,6.5,7.6,83,0.00,,,0.03,WUHU216HW,2013-11-10 13:11:00,
2013-11-10 08:16:00,38.2,33.5,29.75,South,180,6.9,8.3,83,0.00,,,0.03,WUHU216HW,2013-11-10 13:16:00,
2013-11-10 08:21:00,38.2,33.5,29.75,SE,135,6.9,8.3,83,0.00,,,0.03,WUHU216HW,2013-11-10 13:21:00,
2013-11-10 08:26:00,38.3,33.7,29.75,SSE,158,6.9,7.4,83,0.00,,,0.03,WUHU216HW,2013-11-10 13:26:00,
2013-11-10 08:31:00,38.3,33.7,29.75,SE,135,9.2,9.2,83,0.00,,,0.03,WUHU216HW,2013-11-10 13:31:00,
2013-11-10 08:36:00,38.5,33.9,29.75,South,180,6.3,9.2,83,0.00,,,0.03,WUHU216HW,2013-11-10 13:36:00,
2013-11-10 08:41:00,38.5,33.9,29.74,South,180,6.9,8.3,83,0.00,,,0.03,WUHU216HW,2013-11-10 13:41:00,
2013-11-10 08:46:00,38.7,34.0,29.74,SSE,158,6.9,8.3,83,0.00,,,0.03,WUHU216HW,2013-11-10 13:46:00,
2013-11-10 08:51:00,38.9,34.2,29.74,SE,135,6.9,8.3,83,0.00,,,0.03,WUHU216HW,2013-11-10 13:51:00,
2013-11-10 08:56:00,39.2,34.2,29.74,SSE,158,7.4,8.3,82,0.00,,,0.03,WUHU216HW,2013-11-10 13:56:00,
2013-11-10 09:01:00,39.4,34.4,29.74,SSE,158,4.3,8.3,82,0.00,,,0.03,WUHU216HW,2013-11-10 14:01:00,
2013-11-10 09:06:00,39.6,34.6,29.74,SSE,158,6.3,8.1,82,0.00,,,0.03,WUHU216HW,2013-11-10 14:06:00,
2013-11-10 09:11:00,40.0,34.9,29.74,SE,135,6.3,6.5,82,0.00,,,0.03,WUHU216HW,2013-11-10 14:11:00,
2013-11-10 09:16:00,40.1,34.7,29.74,SE,135,6.3,6.9,81,0.00,,,0.03,WUHU216HW,2013-11-10 14:16:00,
2013-11-10 09:21:00,40.5,35.4,29.74,South,180,4.0,6.9,82,0.00,,,0.03,WUHU216HW,2013-11-10 14:21:00,
2013-11-10 09:26:00,40.9,35.7,29.74,SSE,158,7.6,7.8,82,0.00,,,0.03,WUHU216HW,2013-11-10 14:26:00,
2013-11-10 09:31:00,41.4,35.9,29.74,SSW,203,6.5,7.8,81,0.00,,,0.03,WUHU216HW,2013-11-10 14:31:00,
2013-11-10 09:36:00,41.8,36.3,29.73,SSE,158,7.6,7.6,81,0.00,,,0.03,WUHU216HW,2013-11-10 14:36:00,
2013-11-10 09:41:00,42.1,36.4,29.73,SE,135,8.1,8.1,80,0.00,,,0.03,WUHU216HW,2013-11-10 14:41:00,
2013-11-10 09:46:00,42.1,36.0,29.73,SW,225,4.0,8.1,79,0.00,,,0.03,WUHU216HW,2013-11-10 14:46:00,
2013-11-10 09:51:00,42.5,36.4,29.72,East,90,4.7,6.5,79,0.00,,,0.03,WUHU216HW,2013-11-10 14:51:00,
2013-11-10 09:56:00,42.7,36.5,29.72,SW,225,6.9,6.9,79,0.00,,,0.03,WUHU216HW,2013-11-10 14:56:00,
2013-11-10 10:01:00,42.7,36.3,29.72,SSW,203,6.7,8.7,78,0.00,,,0.03,WUHU216HW,2013-11-10 15:01:00,
2013-11-10 10:06:00,42.7,36.3,29.72,SSE,158,5.6,8.7,78,0.00,,,0.03,WUHU216HW,2013-11-10 15:06:00,
2013-11-10 10:11:00,42.8,36.5,29.72,SSW,203,6.0,8.7,78,0.00,,,0.03,WUHU216HW,2013-11-10 15:11:00,
2013-11-10 10:16:00,43.0,36.6,29.72,ESE,113,5.1,8.7,78,0.00,,,0.03,WUHU216HW,2013-11-10 15:16:00,
2013-11-10 10:21:00,43.4,37.0,29.72,SSW,203,5.8,8.3,78,0.00,,,0.03,WUHU216HW,2013-11-10 15:21:00,
2013-11-10 10:26:00,44.1,37.7,29.72,South,180,7.8,8.3,78,0.00,,,0.03,WUHU216HW,2013-11-10 15:26:00,
2013-11-10 10:31:00,44.5,37.7,29.72,South,180,4.9,8.5,77,0.00,,,0.03,WUHU216HW,2013-11-10 15:31:00,
2013-11-10 10:36:00,44.8,38.1,29.72,SSW,203,5.6,9.6,77,0.00,,,0.03,WUHU216HW,2013-11-10 15:36:00,
2013-11-10 10:41:00,45.0,37.9,29.72,SSW,203,6.7,9.6,76,0.00,,,0.03,WUHU216HW,2013-11-10 15:41:00,
2013-11-10 10:46:00,45.0,37.9,29.71,SSW,203,4.7,8.3,76,0.00,,,0.03,WUHU216HW,2013-11-10 15:46:00,
2013-11-10 10:51:00,45.0,37.9,29.72,SSE,158,7.6,8.3,76,0.00,,,0.03,WUHU216HW,2013-11-10 15:51:00,
2013-11-10 10:56:00,45.0,37.9,29.71,SE,135,8.1,9.2,76,0.00,,,0.03,WUHU216HW,2013-11-10 15:56:00,
2013-11-10 11:01:00,45.0,37.9,29.71,SSE,158,4.7,9.2,76,0.00,,,0.03,WUHU216HW,2013-11-10 16:01:00,
2013-11-10 11:06:00,45.2,38.1,29.71,South,180,4.7,6.0,76,0.00,,,0.03,WUHU216HW,2013-11-10 16:06:00,
2013-11-10 11:11:00,45.5,38.8,29.71,SSE,158,6.0,6.0,77,0.00,,,0.03,WUHU216HW,2013-11-10 16:11:00,
2013-11-10 11:16:00,45.7,38.6,29.71,South,180,6.7,10.7,76,0.00,,,0.03,WUHU216HW,2013-11-10 16:16:00,
2013-11-10 11:21:00,45.7,38.6,29.70,SE,135,10.7,10.7,76,0.00,,,0.03,WUHU216HW,2013-11-10 16:21:00,
2013-11-10 11:26:00,45.4,37.9,29.70,SSE,158,7.2,10.7,75,0.00,,,0.03,WUHU216HW,2013-11-10 16:26:00,
2013-11-10 11:31:00,45.5,38.4,29.70,SSE,158,6.9,8.5,76,0.00,,,0.03,WUHU216HW,2013-11-10 16:31:00,
2013-11-10 11:36:00,45.4,37.9,29.70,SSE,158,6.9,8.1,75,0.00,,,0.03,WUHU216HW,2013-11-10 16:36:00,
2013-11-10 11:41:00,45.4,37.9,29.69,SE,135,4.3,8.3,75,0.00,,,0.03,WUHU216HW,2013-11-10 16:41:00,
2013-11-10 11:46:00,45.5,38.4,29.69,West,270,6.9,8.3,76,0.00,,,0.03,WUHU216HW,2013-11-10 16:46:00,
2013-11-10 11:51:00,45.7,38.6,29.69,SSE,158,5.8,6.9,76,0.00,,,0.03,WUHU216HW,2013-11-10 16:51:00,
2013-11-10 11:56:00,45.9,38.8,29.69,WSW,248,3.4,6.9,76,0.00,,,0.03,WUHU216HW,2013-11-10 16:56:00,
2013-11-10 12:01:00,45.9,38.4,29.69,SW,225,3.4,6.3,75,0.00,,,0.03,WUHU216HW,2013-11-10 17:01:00,
2013-11-10 12:06:00,45.9,38.4,29.69,SE,135,1.6,6.3,75,0.00,,,0.03,WUHU216HW,2013-11-10 17:06:00,
2013-11-10 12:11:00,45.9,38.4,29.69,SSW,203,2.5,6.0,75,0.00,,,0.03,WUHU216HW,2013-11-10 17:11:00,
2013-11-10 12:16:00,46.1,38.6,29.68,SSE,158,2.0,6.9,75,0.00,,,0.03,WUHU216HW,2013-11-10 17:16:00,
2013-11-10 12:21:00,46.1,38.6,29.68,South,180,3.6,6.9,75,0.00,,,0.03,WUHU216HW,2013-11-10 17:21:00,
2013-11-10 12:26:00,46.1,38.6,29.68,WSW,248,2.7,4.9,75,0.00,,,0.03,WUHU216HW,2013-11-10 17:26:00,
2013-11-10 12:31:00,46.1,38.6,29.68,SSW,203,2.2,4.3,75,0.00,,,0.03,WUHU216HW,2013-11-10 17:31:00,
2013-11-10 12:36:00,46.4,39.0,29.67,WSW,248,2.2,4.3,75,0.00,,,0.03,WUHU216HW,2013-11-10 17:36:00,
2013-11-10 12:41:00,46.3,38.4,29.67,WSW,248,2.9,4.0,74,0.00,,,0.03,WUHU216HW,2013-11-10 17:41:00,
2013-11-10 12:46:00,46.3,38.1,29.67,SW,225,2.9,4.0,73,0.00,,,0.03,WUHU216HW,2013-11-10 17:46:00,
2013-11-10 12:51:00,46.4,38.3,29.67,WSW,248,2.7,3.6,73,0.00,,,0.03,WUHU216HW,2013-11-10 17:51:00,
2013-11-10 12:56:00,46.6,38.1,29.67,SW,225,2.5,6.5,72,0.00,,,0.03,WUHU216HW,2013-11-10 17:56:00,
2013-11-10 13:01:00,46.8,37.9,29.67,West,270,3.6,6.5,71,0.00,,,0.03,WUHU216HW,2013-11-10 18:01:00,
2013-11-10 13:06:00,47.0,37.4,29.67,WSW,248,4.0,5.8,69,0.00,,,0.03,WUHU216HW,2013-11-10 18:06:00,
2013-11-10 13:11:00,47.2,37.2,29.67,WSW,248,6.5,6.5,68,0.00,,,0.03,WUHU216HW,2013-11-10 18:11:00,
2013-11-10 13:16:00,47.2,37.2,29.67,SSW,203,1.8,6.5,68,0.00,,,0.03,WUHU216HW,2013-11-10 18:16:00,
2013-11-10 13:21:00,47.5,37.4,29.67,South,180,2.7,4.0,68,0.00,,,0.03,WUHU216HW,2013-11-10 18:21:00,
2013-11-10 13:26:00,47.9,37.8,29.67,WSW,248,2.9,4.0,68,0.00,,,0.03,WUHU216HW,2013-11-10 18:26:00,
2013-11-10 13:31:00,47.9,37.8,29.67,SE,135,1.1,3.8,68,0.00,,,0.03,WUHU216HW,2013-11-10 18:31:00,
2013-11-10 13:36:00,48.2,38.2,29.67,West,270,1.6,3.6,68,0.00,,,0.03,WUHU216HW,2013-11-10 18:36:00,
2013-11-10 13:41:00,48.2,37.0,29.67,WNW,293,7.6,7.6,65,0.00,,,0.03,WUHU216HW,2013-11-10 18:41:00,
2013-11-10 13:46:00,48.1,36.8,29.67,WSW,248,2.5,7.6,65,0.00,,,0.03,WUHU216HW,2013-11-10 18:46:00,
2013-11-10 13:51:00,48.2,37.4,29.67,SE,135,0.7,5.4,66,0.00,,,0.03,WUHU216HW,2013-11-10 18:51:00,
2013-11-10 13:56:00,48.4,37.5,29.67,WSW,248,1.1,3.4,66,0.00,,,0.03,WUHU216HW,2013-11-10 18:56:00,
2013-11-10 14:01:00,48.4,36.4,29.67,West,270,4.5,4.5,63,0.00,,,0.03,WUHU216HW,2013-11-10 19:01:00,
2013-11-10 14:06:00,48.4,36.8,29.67,WSW,248,2.0,4.5,64,0.00,,,0.03,WUHU216HW,2013-11-10 19:06:00,
2013-11-10 14:11:00,48.4,36.4,29.67,West,270,2.2,4.7,63,0.00,,,0.03,WUHU216HW,2013-11-10 19:11:00,
2013-11-10 14:16:00,48.4,36.4,29.67,NW,315,4.5,6.3,63,0.00,,,0.03,WUHU216HW,2013-11-10 19:16:00,
2013-11-10 14:21:00,48.2,36.3,29.67,West,270,4.9,8.1,63,0.00,,,0.03,WUHU216HW,2013-11-10 19:21:00,
2013-11-10 14:26:00,47.9,35.9,29.67,SW,225,4.0,8.1,63,0.00,,,0.03,WUHU216HW,2013-11-10 19:26:00,
2013-11-10 14:31:00,48.1,36.5,29.67,WNW,293,4.0,7.6,64,0.00,,,0.03,WUHU216HW,2013-11-10 19:31:00,
2013-11-10 14:36:00,47.9,36.3,29.68,WNW,293,9.8,11.4,64,0.00,,,0.03,WUHU216HW,2013-11-10 19:36:00,
2013-11-10 14:41:00,47.9,36.3,29.68,West,270,9.8,11.4,64,0.00,,,0.03,WUHU216HW,2013-11-10 19:41:00,
2013-11-10 14:46:00,47.5,36.3,29.68,West,270,8.9,11.4,65,0.00,,,0.03,WUHU216HW,2013-11-10 19:46:00,
2013-11-10 14:51:00,47.5,37.1,29.69,NW,315,11.6,14.3,67,0.00,,,0.03,WUHU216HW,2013-11-10 19:51:00,
2013-11-10 14:56:00,47.5,37.1,29.69,West,270,8.7,14.3,67,0.00,,,0.03,WUHU216HW,2013-11-10 19:56:00,
2013-11-10 15:01:00,47.5,37.4,29.69,WNW,293,10.1,13.2,68,0.00,,,0.03,WUHU216HW,2013-11-10 20:01:00,
2013-11-10 15:06:00,47.5,37.4,29.69,West,270,9.2,13.2,68,0.00,,,0.03,WUHU216HW,2013-11-10 20:06:00,
2013-11-10 15:11:00,47.5,37.4,29.69,WNW,293,5.6,10.3,68,0.00,,,0.03,WUHU216HW,2013-11-10 20:11:00,
2013-11-10 15:16:00,47.9,37.5,29.69,WSW,248,6.9,10.1,67,0.00,,,0.03,WUHU216HW,2013-11-10 20:16:00,
2013-11-10 15:21:00,47.9,37.0,29.69,NNW,338,5.1,6.9,66,0.00,,,0.03,WUHU216HW,2013-11-10 20:21:00,
2013-11-10 15:26:00,47.9,37.0,29.69,NNW,338,5.1,5.8,66,0.00,,,0.03,WUHU216HW,2013-11-10 20:26:00,
2013-11-10 15:49:00,47.7,36.5,29.70,West,270,3.8,3.8,65,0.00,,,0.03,WUHU216HW,2013-11-10 20:49:00,
2013-11-10 15:54:00,47.3,36.9,29.70,West,270,6.3,7.6,67,0.00,,,0.03,WUHU216HW,2013-11-10 20:54:00,
2013-11-10 15:59:00,47.0,36.5,29.70,WSW,248,1.6,7.6,67,0.00,,,0.03,WUHU216HW,2013-11-10 20:59:00,
2013-11-10 16:04:00,46.6,36.6,29.71,WSW,248,3.6,6.5,68,0.00,,,0.03,WUHU216HW,2013-11-10 21:04:00,
2013-11-10 16:09:00,46.4,36.9,29.71,West,270,5.8,6.3,69,0.00,,,0.03,WUHU216HW,2013-11-10 21:09:00,
2013-11-10 16:14:00,46.1,36.6,29.71,WSW,248,4.9,8.9,69,0.00,,,0.03,WUHU216HW,2013-11-10 21:14:00,
2013-11-10 16:19:00,46.1,36.1,29.71,WNW,293,4.3,8.9,68,0.00,,,0.03,WUHU216HW,2013-11-10 21:19:00,
2013-11-10 16:24:00,45.9,36.4,29.71,West,270,5.1,8.5,69,0.00,,,0.03,WUHU216HW,2013-11-10 21:24:00,
2013-11-10 16:29:00,45.7,36.5,29.71,West,270,7.2,7.6,70,0.00,,,0.03,WUHU216HW,2013-11-10 21:29:00,
2013-11-10 16:34:00,45.7,36.2,29.71,West,270,4.7,7.6,69,0.00,,,0.03,WUHU216HW,2013-11-10 21:34:00,
2013-11-10 16:39:00,45.5,36.4,29.71,West,270,5.6,6.9,70,0.00,,,0.03,WUHU216HW,2013-11-10 21:39:00,
2013-11-10 16:44:00,45.4,36.2,29.71,West,270,2.7,5.6,70,0.00,,,0.03,WUHU216HW,2013-11-10 21:44:00,
2013-11-10 16:49:00,45.4,36.2,29.71,WNW,293,5.4,5.6,70,0.00,,,0.03,WUHU216HW,2013-11-10 21:49:00,
2013-11-10 16:54:00,45.2,36.0,29.71,WNW,293,3.6,5.4,70,0.00,,,0.03,WUHU216HW,2013-11-10 21:54:00,
2013-11-10 16:59:00,45.0,35.8,29.71,WSW,248,3.4,5.4,70,0.00,,,0.03,WUHU216HW,2013-11-10 21:59:00,
2013-11-10 17:04:00,45.0,35.5,29.72,WSW,248,5.1,5.1,69,0.00,,,0.03,WUHU216HW,2013-11-10 22:04:00,
2013-11-10 17:09:00,44.8,35.6,29.71,WSW,248,4.7,5.1,70,0.00,,,0.03,WUHU216HW,2013-11-10 22:09:00,
2013-11-10 17:14:00,44.8,35.6,29.72,WSW,248,2.5,6.7,70,0.00,,,0.03,WUHU216HW,2013-11-10 22:14:00,
2013-11-10 17:19:00,44.8,35.3,29.72,WSW,248,4.5,7.6,69,0.00,,,0.03,WUHU216HW,2013-11-10 22:19:00,
2013-11-10 17:24:00,44.8,35.6,29.72,WSW,248,6.9,7.6,70,0.00,,,0.03,WUHU216HW,2013-11-10 22:24:00,
2013-11-10 17:29:00,45.0,35.8,29.72,WSW,248,3.6,6.9,70,0.00,,,0.03,WUHU216HW,2013-11-10 22:29:00,
2013-11-10 17:34:00,44.8,35.3,29.72,WSW,248,3.6,6.9,69,0.00,,,0.03,WUHU216HW,2013-11-10 22:34:00,
2013-11-10 17:39:00,44.8,35.3,29.73,West,270,2.5,4.7,69,0.00,,,0.03,WUHU216HW,2013-11-10 22:39:00,
2013-11-10 17:44:00,44.6,35.1,29.73,West,270,3.8,4.7,69,0.00,,,0.03,WUHU216HW,2013-11-10 22:44:00,
2013-11-10 17:49:00,44.6,35.5,29.73,West,270,3.1,6.3,70,0.00,,,0.03,WUHU216HW,2013-11-10 22:49:00,
2013-11-10 17:54:00,44.5,35.3,29.73,West,270,2.0,6.3,70,0.00,,,0.03,WUHU216HW,2013-11-10 22:54:00,
2013-11-10 17:59:00,44.5,35.3,29.73,WNW,293,2.5,6.0,70,0.00,,,0.03,WUHU216HW,2013-11-10 22:59:00,
2013-11-10 18:04:00,44.3,35.1,29.73,WSW,248,1.3,6.0,70,0.00,,,0.03,WUHU216HW,2013-11-10 23:04:00,
2013-11-10 18:09:00,44.3,35.1,29.74,West,270,4.3,5.8,70,0.00,,,0.03,WUHU216HW,2013-11-10 23:09:00,
2013-11-10 18:14:00,44.3,35.5,29.74,West,270,6.3,7.8,71,0.00,,,0.03,WUHU216HW,2013-11-10 23:14:00,
2013-11-10 18:19:00,44.1,35.6,29.74,WSW,248,8.5,8.5,72,0.00,,,0.03,WUHU216HW,2013-11-10 23:19:00,
2013-11-10 18:24:00,43.9,35.8,29.74,West,270,8.1,9.8,73,0.00,,,0.03,WUHU216HW,2013-11-10 23:24:00,
2013-11-10 18:29:00,43.9,35.8,29.74,WNW,293,5.4,9.8,73,0.00,,,0.03,WUHU216HW,2013-11-10 23:29:00,
2013-11-10 18:34:00,43.7,35.0,29.74,WSW,248,3.1,7.6,71,0.00,,,0.03,WUHU216HW,2013-11-10 23:34:00,
2013-11-10 18:39:00,43.6,34.8,29.74,WSW,248,4.0,4.0,71,0.00,,,0.03,WUHU216HW,2013-11-10 23:39:00,
2013-11-10 18:44:00,43.6,34.8,29.74,WSW,248,2.0,4.7,71,0.00,,,0.03,WUHU216HW,2013-11-10 23:44:00,
2013-11-10 18:49:00,43.4,34.7,29.74,WNW,293,0.7,4.7,71,0.00,,,0.03,WUHU216HW,2013-11-10 23:49:00,
2013-11-10 18:54:00,43.4,34.7,29.74,SSE,158,0.9,2.0,71,0.00,,,0.03,WUHU216HW,2013-11-10 23:54:00,
2013-11-10 18:59:00,43.2,34.5,29.74,SSE,158,0.0,2.0,71,0.00,,,0.03,WUHU216HW,2013-11-10 23:59:00,
2013-11-10 19:04:00,43.2,34.5,29.74,SSE,158,1.8,1.8,71,0.00,,,0.03,WUHU216HW,2013-11-11 00:04:00,
2013-11-10 19:09:00,43.0,34.3,29.75,SE,135,1.1,1.8,71,0.00,,,0.03,WUHU216HW,2013-11-11 00:09:00,
2013-11-10 19:14:00,43.0,34.7,29.75,SSW,203,0.9,1.6,72,0.00,,,0.03,WUHU216HW,2013-11-11 00:14:00,
2013-11-10 19:19:00,42.8,34.5,29.75,West,270,2.5,2.5,72,0.00,,,0.03,WUHU216HW,2013-11-11 00:19:00,
2013-11-10 19:24:00,42.8,34.8,29.75,West,270,4.9,4.9,73,0.00,,,0.03,WUHU216HW,2013-11-11 00:24:00,
2013-11-10 19:29:00,42.8,34.8,29.75,West,270,4.9,4.9,73,0.00,,,0.03,WUHU216HW,2013-11-11 00:29:00,
2013-11-10 19:49:00,42.8,34.5,29.76,SSW,203,1.1,1.1,72,0.00,,,0.03,WUHU216HW,2013-11-11 00:49:00,
2013-11-10 19:54:00,42.8,34.5,29.76,WSW,248,2.5,2.5,72,0.00,,,0.03,WUHU216HW,2013-11-11 00:54:00,
2013-11-10 19:59:00,42.7,34.7,29.76,WSW,248,2.2,2.5,73,0.00,,,0.03,WUHU216HW,2013-11-11 00:59:00,
2013-11-10 20:04:00,42.5,34.7,29.77,WNW,293,1.8,2.9,74,0.00,,,0.03,WUHU216HW,2013-11-11 01:04:00,
2013-11-10 20:09:00,42.5,34.7,29.77,WSW,248,1.6,3.6,74,0.00,,,0.03,WUHU216HW,2013-11-11 01:09:00,
2013-11-10 20:14:00,42.5,34.7,29.77,WNW,293,4.0,4.0,74,0.00,,,0.03,WUHU216HW,2013-11-11 01:14:00,
2013-11-10 20:19:00,42.5,34.7,29.77,WSW,248,2.0,4.0,74,0.00,,,0.03,WUHU216HW,2013-11-11 01:19:00,
2013-11-10 20:24:00,42.3,34.6,29.78,West,270,3.8,4.5,74,0.00,,,0.03,WUHU216HW,2013-11-11 01:24:00,
2013-11-10 20:29:00,42.5,34.5,29.78,WSW,248,3.6,5.1,73,0.00,,,0.03,WUHU216HW,2013-11-11 01:29:00,
2013-11-10 20:34:00,42.5,34.5,29.78,West,270,2.0,5.1,73,0.00,,,0.03,WUHU216HW,2013-11-11 01:34:00,
2013-11-10 20:39:00,42.5,33.5,29.78,WNW,293,5.4,6.9,70,0.00,,,0.03,WUHU216HW,2013-11-11 01:39:00,
2013-11-10 20:44:00,42.7,33.7,29.78,NW,315,7.2,7.2,70,0.00,,,0.03,WUHU216HW,2013-11-11 01:44:00,
2013-11-10 20:49:00,42.7,33.7,29.78,NW,315,7.2,7.2,70,0.00,,,0.03,WUHU216HW,2013-11-11 01:49:00,
2013-11-10 20:59:00,43.7,32.0,29.80,NNW,338,12.8,12.8,63,0.00,,,0.03,WUHU216HW,2013-11-11 01:59:00,
2013-11-10 21:04:00,43.7,32.0,29.80,NW,315,17.0,17.0,63,0.00,,,0.03,WUHU216HW,2013-11-11 02:04:00,
2013-11-10 21:09:00,43.6,32.1,29.80,WNW,293,13.4,20.1,64,0.00,,,0.03,WUHU216HW,2013-11-11 02:09:00,
2013-11-10 21:14:00,43.6,31.8,29.81,WNW,293,9.2,20.1,63,0.00,,,0.03,WUHU216HW,2013-11-11 02:14:00,
2013-11-10 21:19:00,43.6,31.8,29.80,NNW,338,7.6,16.8,63,0.00,,,0.03,WUHU216HW,2013-11-11 02:19:00,
2013-11-10 21:24:00,43.6,31.8,29.81,NW,315,9.4,9.4,63,0.00,,,0.03,WUHU216HW,2013-11-11 02:24:00,
2013-11-10 21:29:00,43.2,31.1,29.81,NW,315,9.4,13.4,62,0.00,,,0.03,WUHU216HW,2013-11-11 02:29:00,
2013-11-10 21:34:00,43.0,30.9,29.81,NW,315,9.2,13.4,62,0.00,,,0.03,WUHU216HW,2013-11-11 02:34:00,
2013-11-10 21:39:00,43.0,31.2,29.81,NW,315,11.4,15.2,63,0.00,,,0.03,WUHU216HW,2013-11-11 02:39:00,
2013-11-10 21:44:00,43.0,31.2,29.82,WNW,293,13.6,15.2,63,0.00,,,0.03,WUHU216HW,2013-11-11 02:44:00,
2013-11-10 21:49:00,42.8,32.2,29.82,NW,315,17.0,17.2,66,0.00,,,0.03,WUHU216HW,2013-11-11 02:49:00,
2013-11-10 21:54:00,42.5,31.5,29.82,WNW,293,11.6,17.2,65,0.00,,,0.03,WUHU216HW,2013-11-11 02:54:00,
2013-11-10 21:59:00,42.5,32.7,29.83,WNW,293,9.6,15.2,68,0.00,,,0.03,WUHU216HW,2013-11-11 02:59:00,
2013-11-10 22:04:00,42.5,30.7,29.83,West,270,5.4,13.6,63,0.00,,,0.03,WUHU216HW,2013-11-11 03:04:00,
2013-11-10 22:09:00,42.5,31.5,29.83,West,270,5.8,10.5,65,0.00,,,0.03,WUHU216HW,2013-11-11 03:09:00,
2013-11-10 22:14:00,42.3,31.3,29.83,WNW,293,9.6,10.5,65,0.00,,,0.03,WUHU216HW,2013-11-11 03:14:00,
2013-11-10 22:19:00,41.9,31.0,29.83,WNW,293,7.4,11.6,65,0.00,,,0.03,WUHU216HW,2013-11-11 03:19:00,
2013-11-10 22:24:00,41.9,30.3,29.84,NW,315,11.0,12.8,63,0.00,,,0.03,WUHU216HW,2013-11-11 03:24:00,
2013-11-10 22:29:00,41.9,30.3,29.84,NW,315,12.1,12.8,63,0.00,,,0.03,WUHU216HW,2013-11-11 03:29:00,
2013-11-10 22:34:00,41.9,30.3,29.84,NNW,338,7.6,14.8,63,0.00,,,0.03,WUHU216HW,2013-11-11 03:34:00,
2013-11-10 22:39:00,42.1,30.8,29.84,WNW,293,17.4,17.4,64,0.00,,,0.03,WUHU216HW,2013-11-11 03:39:00,
2013-11-10 22:44:00,42.1,30.0,29.84,WNW,293,6.9,17.4,62,0.00,,,0.03,WUHU216HW,2013-11-11 03:44:00,
2013-11-10 22:49:00,42.1,29.6,29.85,NNW,338,5.6,12.3,61,0.00,,,0.03,WUHU216HW,2013-11-11 03:49:00,
2013-11-10 22:54:00,42.1,30.0,29.85,NW,315,2.2,8.5,62,0.00,,,0.03,WUHU216HW,2013-11-11 03:54:00,
2013-11-10 22:59:00,42.1,30.4,29.86,West,270,14.5,14.5,63,0.00,,,0.03,WUHU216HW,2013-11-11 03:59:00,
2013-11-10 23:04:00,42.1,29.6,29.86,WNW,293,9.8,14.5,61,0.00,,,0.03,WUHU216HW,2013-11-11 04:04:00,
2013-11-10 23:09:00,42.1,30.0,29.86,WNW,293,13.0,14.3,62,0.00,,,0.03,WUHU216HW,2013-11-11 04:09:00,
2013-11-10 23:14:00,41.9,29.1,29.86,NW,315,14.8,15.7,60,0.00,,,0.03,WUHU216HW,2013-11-11 04:14:00,
2013-11-10 23:19:00,41.8,28.9,29.86,NNW,338,7.4,15.7,60,0.00,,,0.03,WUHU216HW,2013-11-11 04:19:00,
2013-11-10 23:24:00,41.6,28.7,29.86,NW,315,9.8,13.0,60,0.00,,,0.03,WUHU216HW,2013-11-11 04:24:00,
2013-11-10 23:29:00,41.4,29.0,29.87,WNW,293,9.6,13.0,61,0.00,,,0.03,WUHU216HW,2013-11-11 04:29:00,
2013-11-10 23:34:00,41.4,28.6,29.87,NNW,338,7.8,11.2,60,0.00,,,0.03,WUHU216HW,2013-11-11 04:34:00,
2013-11-10 23:39:00,41.4,27.7,29.88,WNW,293,4.0,16.3,58,0.00,,,0.03,WUHU216HW,2013-11-11 04:39:00,
2013-11-10 23:44:00,41.4,29.0,29.88,NNW,338,9.2,16.3,61,0.00,,,0.03,WUHU216HW,2013-11-11 04:44:00,
2013-11-10 23:49:00,41.4,28.6,29.88,NW,315,22.4,22.4,60,0.00,,,0.03,WUHU216HW,2013-11-11 04:49:00,
2013-11-10 23:54:00,41.4,29.0,29.88,NW,315,11.2,22.4,61,0.00,,,0.03,WUHU216HW,2013-11-11 04:54:00,
2013-11-10 23:59:00,41.4,28.6,29.89,NNW,338,8.5,13.4,60,0.00,,,0.03,WUHU216HW,2013-11-11 04:59:00,